Showing default

IRIDIUM 131, 43079

Orbit data source: Space-Track

IRIDIUM 131, 43079 is a payload satellite owned by Iridium (US) in LEO that was launched on Sat, 23 Dec 2017 UTC via an FALCON 9 launch vehicle from the Air Force Western Test Range (AFWTR). Payload-class satellites include a variety of spacecraft equipped with specific instruments for various scientific and technological missions. These include communications satellites like Starlink; space stations such as the ISS; scientific satellites like the Hubble; Earth observation satellites from companies like Planet Labs, Umbra, and HawkEye 360; GPS; miniature CubeSats for education and research; and military/defense satellites.

Loading next visibility...
Identifier
43079, 2017-083K
Orbit
LEO
Country
Flag of USUS
Related business
Manufacturer
OATK SSG Gilbert
Mission
Operational Commercial Communications
Bus & Motor
ELITEBUS, Unknown motor
Mass
860 kg wet, 700 kg dry
Launch date (UTC)
2017-12-23 (8 years ago)
Launch vehicle
FALCON 9
Launch site
Air Force Western Test Range (AFWTR)
Object type
Payload
Rocket body
Debris
Shape & HBR
Trap Box + 2 Pan, 4.8 m
Radar Cross Section
10.154 m², Large (>1 m²)

Expand to show TLE details & history
Last TLE update: 14 hours ago

TLE from 14 hours ago
0 IRIDIUM 131
1 43079U 17083K   25348.65188889  .00000008  00000-0 -41687-5 0  9997
2 43079  86.3967  39.2959 0002013  93.8370 266.3056 14.34217623417651
Epoch: 2025-12-14T15:38Z
TLE epoch observation values (Epoch: 2025-12-14T15:38:43.200Z)
Latitude
Longitude
81.05416°
Altitude
780.812 km
Speed
7.463 km/s
True Right ascension
02h 37m 11s
True Declination
0° 00' 00"
Sunlit
Object was in full shadow at epoch
Visualization orbit readout
Latitude
Unknown
Longitude
Unknown
Altitude
Unknown
Speed
Unknown
Apparent Right ascension
Unknown
Apparent Declination
Unknown
Sunlit
N/A
Visualization observer readout
Local Sidereal Time
04:39:14
Azimuth
Unknown
Elevation
Unknown
Doppler factor
Unknown
Orbital elements
Apogee altitude
776.072 km
Perigee altitude
773.192 km
Semi-major axis
7,152.769 km
Eccentricity
0.0002
Inclination
86.3967°
RAAN
39.2959°
Arg. of periapsis
93.837°
True anomaly
266.28258°
Mean anomaly
266.3056°
Eccentric anomaly
266.29409°
Mean motion
3.58783 °/min
Orbital period
100.34 mins
BSTAR
-0.0000041687
Loading maneuver chart data...
Computing Atmospheric mass density...
Loading historical data...
Loading historical data...
Loading historical data...
Loading historical data...
Loading historical data...
Loading historical data...
Loading historical data...

Documentation

Showing up to 5 results
|